Regional Weather Roundup
Issued by NWS Northern Indiana

Home | Current Version | Previous Version | Text Only | Print | Product List | Glossary Off
Versions: 1 2 3 4 5 6 7 8 9 10 11 12 13 14 15 16 17 18 19 20 21 22 23 24 25 26 27 28 29 30 31 32 33 34 35 36 37 38 39 40 41 42 43 44 45 46 47 48 49 50

000
ASUS43 KIWX 280410
RWRIWX

KIWX WEATHER ROUNDUP
NATIONAL WEATHER SERVICE NORTHERN INDIANA
1200 AM EDT TUE APR 28 2015

NOTE: "FAIR" INDICATES FEW OR NO CLOUDS BELOW 12,000 FEET WITH NO
SIGNIFICANT WEATHER AND/OR OBSTRUCTIONS TO VISIBILITY.

* THESE STATIONS ARE NOT UNDER NWS QUALITY CONTROL. THEY ALSO MAY NOT
  REPORT WEATHER SUCH AS PRECIPITATION OR FOG.

INZ001>027-280500-
NORTHERN INDIANA

CITY           SKY/WX    TMP DP  RH WIND       PRES   REMARKS
GARY*          CLEAR     39  32  77 CALM      30.12F
VALPARAISO     CLEAR     39  33  79 N3        30.11F
MICHIGAN CITY* CLEAR     34  32  93 CALM      30.12S
LAPORTE*       CLEAR     39  34  82 CALM      30.11F
KNOX*          CLEAR     36  28  75 CALM      30.10F
SOUTH BEND     CLEAR     37  31  78 CALM      30.11F
GOSHEN         CLEAR     38  33  82 N5        30.10S
MONTICELLO*    CLEAR     42  35  76 NE7       30.10S
LOGANSPORT*    CLEAR     43  34  70 N6        30.11S
ROCHESTER*     CLEAR     45  37  76 CALM      30.11S
WARSAW*        FAIR      39  36  87 CALM      30.10S
ANGOLA*        CLEAR     37  34  87 CALM      30.10R
FORT WAYNE     CLEAR     38  33  82 N3        30.10S
HUNTINGTON*    CLEAR     38  34  83 CALM      30.10S
PERU/GRISSOM   CLEAR     41  35  81 NE6       30.09S
MARION*        CLEAR     43  35  72 NE3       30.10S

$$
INZ028>050-280500-
CENTRAL INDIANA

CITY           SKY/WX    TMP DP  RH WIND       PRES   REMARKS
LAFAYETTE      CLEAR     42  34  73 N7        30.10R
KOKOMO*        CLEAR     41  36  81 NE6       30.09S
MUNCIE*        CLEAR     44  36  73 NE6       30.08S
INDIANAPOLIS   CLEAR     45  36  70 N7        30.06S

$$
MIZ043>046-050>051-056>058-064>065-071>073-077>080-280500-
SOUTHWEST LOWER MICHIGAN

CITY           SKY/WX    TMP DP  RH WIND       PRES   REMARKS
BATTLE CREEK   CLEAR     43  34  70 CALM      30.10S
BENTON HARBOR  CLEAR     35  32  88 CALM      30.11R
COLDWATER*     CLEAR     35  32  87 CALM      30.10S
HILLSDALE*     CLEAR     39  34  83 CALM      30.09S
HOLLAND        CLEAR     40  34  79 CALM      30.11R
GRAND RAPIDS   PTCLDY    43  34  70 W6        30.09S
KALAMAZOO      CLEAR     41  34  76 CALM      30.10S
STURGIS*       CLEAR     43  36  75 CALM      30.10S
THREE RIVERS*  FAIR      39  33  78 CALM      30.11S

$$
OHZ001>008-015>018-024>025-280500-
NORTHWEST OHIO

CITY           SKY/WX    TMP DP  RH WIND       PRES   REMARKS
WAUSEON*       FAIR      41  34  75 N3        30.09S
DEFIANCE       CLEAR     41  33  73 CALM      30.10R
FINDLAY        CLEAR     41  33  73 NW3       30.08S
TOLEDO EXPRESS CLEAR     39  33  79 CALM      30.09R
TOLEDO METCALF CLEAR     44  34  67 NE5       30.10R
LIMA           CLEAR     39  34  82 N3        30.08S

$$
AND FOR LAKE MICHIGAN COASTAL AND OPEN LAKE BUOY OBSERVATIONS

STATION/POSITION TEMP    WIND        PRES    VSBY  WAVE
                 AIR SEA DIR/SP/G                  HT/PER
                 (F)     (DEG/KT/KT) (MB)    (MI)  (FT/S)
CALUMET HARBOR    41     350/  4/  5   N/A
MICHIGAN CITY     41     300/  7/  8   N/A
BURNS HARBOR      42     330/  5/  6 1020.7S
SAINT JOSEPH      41      CALM  /  2 1019.6S
MICHIGAN CITY     40 45  330/  8/ 10   N/A           3/ 5

$$
&&


USA.gov is the U.S. government's official web portal to all federal, state and local government web resources and services.